Epoch = 2005 Nov. 6.0 TT T = 2005 Nov. 3.57375 TT Peri. = 304.52738 e = 0.5524022 Node = 57.06854 2000.0 q = 3.2467844 AU Incl. = 21.37304 a = 7.2537990 AU n = 0.05044938 P = 19.534 years
m1 = 3.5 + 5 log d + 25.0 log r